{"data":{"norad_id":64443,"epoch":"2026-05-25T03:44:28.947840Z","epoch_age_seconds":51653,"freshness":"FRESH","line1":"1 64443U 25130F   26145.15589060  .00026285  00000+0  89631-3 0  9996","line2":"2 64443  53.1584  93.1243 0001023  89.9477 270.1641 15.30204540 52418","mean_motion":15.3020454,"eccentricity":0.0001023,"inclination_deg":53.1584,"raan_deg":93.1243,"arg_perigee_deg":89.9477,"mean_anomaly_deg":270.1641,"bstar":0.00089631,"rev_number":5241,"period_min":94.10506650307,"perigee_km":474.50041730121,"apogee_km":475.90261036114,"semimajor_km":6853.3385138312,"source":"CELESTRAK","updated_at":"2026-05-25T13:38:20.447507Z"}}